Weather History for Boothville, LA

Change the Weather History Date:

Tuesday, May 28, 2013

  Actual Average Record
Temperature  
Mean Temperature 76 °F -  
Max Temperature 82 °F - - ()
Min Temperature 71 °F - - ()
Cooling Degree Days 12    
Growing Degree Days 26 (Base 50)    
Moisture  
Dew Point 69 °F    
Average Humidity 78    
Maximum Humidity 94    
Minimum Humidity 54    
Precipitation  
Precipitation 0.01 in - - ()
Sea Level Pressure  
Sea Level Pressure 30.05 in    
Wind  
Wind Speed 7 mph (ESE)    
Max Wind Speed 12 mph    
Max Gust Speed -    
Visibility 10 miles    
Events Rain    
T = Trace of Precipitation, MM = Missing Value Source: NWS Daily Summary

Daily Weather History Graph

Daily Weather History Graph

Search for Another Location

Airport:

Trip Planner

Search our weather history database for the weather conditions in past years. The results will help you decide how hot, cold, wet, or windy it might be!

Date:

Astronomy

May. 28, 2013 Rise Set
Actual Time 5:59 AM CDT 7:50 PM CDT
Civil Twilight 5:32 AM CDT 8:17 PM CDT
Nautical Twilight 5:00 AM CDT 8:49 PM CDT
Astronomical Twilight 4:26 AM CDT 9:23 PM CDT
Moon 11:24 PM CDT (5/28) 9:40 AM CDT (5/28)
Length of Visible Light 14h 44m
Length of Day
13h 51m
Waning Gibbous, 82% of the Moon is Illuminated
May 28
Waning Gibbous
May 31
Last Quarter
Jun 8
New
Jun 16
First Quarter
Jun 23
Full

Hourly Weather History & Observations

Time (CDT) Temp. Heat Index Dew Point Humidity Pressure Visibility Wind Dir Wind Speed Gust Speed Precip Events Conditions
12:51 AM 73.0 °F - 66.9 °F 81% 30.09 in 10.0 mi ESE 5.8 mph - N/A   Clear
1:51 AM 72.0 °F - 66.0 °F 81% 30.07 in 10.0 mi SE 3.5 mph - N/A   Clear
2:51 AM 72.0 °F - 66.9 °F 84% 30.06 in 10.0 mi East 3.5 mph - N/A   Clear
3:51 AM 72.0 °F - 66.9 °F 84% 30.05 in 10.0 mi ESE 3.5 mph - N/A   Clear
4:51 AM 71.1 °F - 66.9 °F 87% 30.05 in 10.0 mi ESE 4.6 mph - N/A   Clear
5:51 AM 72.0 °F - 68.0 °F 87% 30.06 in 10.0 mi ESE 4.6 mph - N/A   Clear
6:51 AM 73.0 °F - 68.0 °F 84% 30.06 in 10.0 mi ESE 5.8 mph - N/A   Clear
7:51 AM 75.0 °F - 69.1 °F 82% 30.05 in 10.0 mi SE 8.1 mph - N/A   Clear
8:51 AM 77.0 °F - 69.1 °F 76% 30.06 in 10.0 mi ESE 9.2 mph - N/A   Clear
9:51 AM 79.0 °F - 66.9 °F 66% 30.07 in 10.0 mi SE 11.5 mph - N/A   Clear
10:51 AM 80.1 °F 82.3 °F 66.9 °F 64% 30.07 in 10.0 mi ESE 9.2 mph - N/A   Clear
11:51 AM 81.0 °F 83.3 °F 66.9 °F 62% 30.07 in 10.0 mi ESE 9.2 mph - N/A   Partly Cloudy
12:51 PM 81.0 °F 83.8 °F 68.0 °F 65% 30.07 in 10.0 mi East 10.4 mph - N/A   Clear
1:51 PM 82.0 °F 83.4 °F 64.0 °F 54% 30.07 in 10.0 mi East 11.5 mph - N/A   Clear
2:51 PM 82.0 °F 84.9 °F 68.0 °F 62% 30.06 in 10.0 mi East 9.2 mph - N/A   Clear
3:51 PM 81.0 °F 83.8 °F 68.0 °F 65% 30.04 in 10.0 mi East 9.2 mph - N/A   Partly Cloudy
4:24 PM 80.6 °F 83.9 °F 69.8 °F 70% 30.03 in 10.0 mi East 10.4 mph - N/A   Mostly Cloudy
4:51 PM 81.0 °F 84.9 °F 71.1 °F 72% 30.03 in 10.0 mi East 9.2 mph - N/A   Scattered Clouds
5:51 PM 80.1 °F 83.6 °F 71.1 °F 74% 30.02 in 10.0 mi East 6.9 mph - N/A   Partly Cloudy
6:51 PM 80.1 °F 83.8 °F 72.0 °F 76% 30.02 in 10.0 mi East 5.8 mph - N/A   Partly Cloudy
7:51 PM 77.0 °F - 73.0 °F 88% 30.01 in 10.0 mi ESE 8.1 mph - 0.00 in Rain Light Rain
8:51 PM 75.0 °F - 73.0 °F 94% 30.02 in 10.0 mi East 3.5 mph - 0.01 in   Overcast
9:26 PM 77.0 °F - 73.4 °F 89% 30.02 in 10.0 mi ESE 8.1 mph - N/A   Mostly Cloudy
9:33 PM 77.0 °F - 73.4 °F 89% 30.03 in 10.0 mi ESE 8.1 mph - N/A   Mostly Cloudy
9:51 PM 77.0 °F - 73.9 °F 90% 30.03 in 10.0 mi ESE 8.1 mph - N/A   Mostly Cloudy
10:51 PM 75.9 °F - 73.0 °F 91% 30.04 in 10.0 mi ESE 6.9 mph - N/A   Mostly Cloudy
11:51 PM 75.9 °F - 73.0 °F 91% 30.03 in 10.0 mi ESE 6.9 mph - N/A   Partly Cloudy